Location: Montbazon
(47.2835°N, 0.6999°E)
Time: 16:36:14
(UTC+00:00)

Cosmos 2360 Rocket - Pass Details

Date: 08 November 2025
Orbit: 833 x 843 km, 71.0° (Epoch: 09 December)

Event Time Altitude Azimuth Distance (km) Brightness Sun altitude
Exits shadow 03:59:22 34° 360° (N) 1,368 3.3 -29.3°
Drops below altitude 10° 04:02:43 10° 20° (NNE) 2,473 4.9 -28.7°
Sets 04:05:15 0° 25° (NNE) 3,411 5.8 -28.3°
